AAY961 KPGD-KPIA

Flight info

Callsign AAY961
Flight time N/A
Altitude 34000
Route ROGAN LAL PATOY Q116 JAWJA LGC J73 BNA AXC
Aircraft A320/M-SDE3FGHIRWY/LB1

Departure

Time 2026-04-26 13:26
Airport Punta Gorda Airport (KPGD)

Arrival

Time N/A
Airport General Wayne A. Downing Peoria International Airport (KPIA)
Time Latitude Longitude Altitude Speed Heading
2026-04-26 13:01 26.91752 -81.99793 29 ft 0 kts 240°
2026-04-26 13:16 26.91754 -81.99789 10 ft 3 kts 240°
2026-04-26 13:17 26.91782 -81.99740 26 ft 4 kts 212°
2026-04-26 13:17 26.91805 -81.99734 26 ft 4 kts 160°
2026-04-26 13:18 26.91817 -81.99740 31 ft 0 kts 150°
2026-04-26 13:18 26.91818 -81.99740 31 ft 0 kts 150°
2026-04-26 13:20 26.91811 -81.99736 31 ft 7 kts 150°
2026-04-26 13:20 26.91732 -81.99684 28 ft 14 kts 146°
2026-04-26 13:20 26.91732 -81.99591 29 ft 12 kts 59°
2026-04-26 13:20 26.91769 -81.99498 29 ft 19 kts 78°
2026-04-26 13:21 26.91784 -81.99350 31 ft 19 kts 84°
2026-04-26 13:21 26.91792 -81.99255 34 ft 18 kts 86°
2026-04-26 13:21 26.91804 -81.99088 37 ft 15 kts 84°
2026-04-26 13:21 26.91813 -81.98979 37 ft 14 kts 84°
2026-04-26 13:22 26.91835 -81.98860 36 ft 17 kts 57°
2026-04-26 13:22 26.91923 -81.98793 37 ft 14 kts 29°
2026-04-26 13:22 26.92022 -81.98730 35 ft 19 kts 30°
2026-04-26 13:22 26.92156 -81.98648 34 ft 23 kts 28°
2026-04-26 13:23 26.92299 -81.98557 34 ft 24 kts 31°
2026-04-26 13:23 26.92445 -81.98468 36 ft 24 kts 28°
2026-04-26 13:23 26.92585 -81.98380 36 ft 23 kts 30°
2026-04-26 13:23 26.92722 -81.98296 37 ft 17 kts 27°
2026-04-26 13:24 26.92773 -81.98222 38 ft 11 kts 108°
2026-04-26 13:24 26.92761 -81.98197 37 ft 0 kts 118°
2026-04-26 13:24 26.92755 -81.98185 38 ft 7 kts 121°
2026-04-26 13:25 26.92682 -81.98181 40 ft 14 kts 209°
2026-04-26 13:25 26.92580 -81.98246 38 ft 30 kts 210°
2026-04-26 13:25 26.92168 -81.98495 33 ft 102 kts 209°
2026-04-26 13:25 26.91379 -81.98982 34 ft 155 kts 208°
2026-04-26 13:26 26.90439 -81.99562 722 ft 142 kts 207°
2026-04-26 13:26 26.89563 -82.00074 1365 ft 142 kts 208°
2026-04-26 13:26 26.88730 -82.00699 1850 ft 151 kts 231°
2026-04-26 13:26 26.88396 -82.01871 2025 ft 174 kts 272°
2026-04-26 13:27 26.88920 -82.03165 2184 ft 201 kts 316°
2026-04-26 13:27 26.90278 -82.03767 2375 ft 227 kts
2026-04-26 13:27 26.91881 -82.03462 2665 ft 251 kts 17°
2026-04-26 13:27 26.93631 -82.02743 3109 ft 270 kts 21°
2026-04-26 13:28 26.95380 -82.01905 3871 ft 276 kts 22°
2026-04-26 13:28 26.97155 -82.01050 4680 ft 279 kts 21°
2026-04-26 13:28 26.98948 -82.00215 5489 ft 281 kts 20°
2026-04-26 13:28 27.00746 -81.99414 6300 ft 283 kts 19°
2026-04-26 13:29 27.02587 -81.98622 7044 ft 284 kts 19°
2026-04-26 13:29 27.03843 -81.98092 7548 ft 285 kts 18°
2026-04-26 13:29 27.06317 -81.97062 8552 ft 287 kts 17°
2026-04-26 13:29 27.08198 -81.96283 9307 ft 289 kts 16°
2026-04-26 13:30 27.10084 -81.95502 10030 ft 290 kts 16°
2026-04-26 13:30 27.12030 -81.94703 10338 ft 308 kts 16°
2026-04-26 13:30 27.14121 -81.93846 10458 ft 331 kts 16°
2026-04-26 13:30 27.16341 -81.92935 10737 ft 346 kts 17°
2026-04-26 13:31 27.18617 -81.91994 11289 ft 351 kts 17°
2026-04-26 13:31 27.20920 -81.91034 11909 ft 354 kts 17°
2026-04-26 13:31 27.23247 -81.90112 12525 ft 355 kts 12°
2026-04-26 13:31 27.25677 -81.89647 13130 ft 355 kts
2026-04-26 13:32 27.28139 -81.89768 13711 ft 355 kts 349°
2026-04-26 13:32 27.30592 -81.90183 14250 ft 358 kts 349°
2026-04-26 13:32 27.33063 -81.90595 14772 ft 361 kts 349°
2026-04-26 13:32 27.35559 -81.91008 15289 ft 363 kts 349°
2026-04-26 13:33 27.38068 -81.91422 15807 ft 366 kts 349°
2026-04-26 13:33 27.40602 -81.91839 16329 ft 369 kts 349°
2026-04-26 13:33 27.43155 -81.92256 16828 ft 372 kts 349°
2026-04-26 13:33 27.45725 -81.92674 17343 ft 375 kts 349°
2026-04-26 13:34 27.48322 -81.93099 17849 ft 378 kts 349°
2026-04-26 13:34 27.50934 -81.93528 18334 ft 381 kts 349°
2026-04-26 13:34 27.53564 -81.93959 18784 ft 384 kts 349°
2026-04-26 13:34 27.55317 -81.94246 19089 ft 385 kts 349°
2026-04-26 13:35 27.58876 -81.94830 19702 ft 388 kts 349°
2026-04-26 13:35 27.61548 -81.95272 20173 ft 390 kts 349°
2026-04-26 13:35 27.64242 -81.95718 20629 ft 392 kts 349°
2026-04-26 13:35 27.66948 -81.96163 21093 ft 394 kts 349°
2026-04-26 13:36 27.69667 -81.96609 21538 ft 396 kts 349°
2026-04-26 13:36 27.72366 -81.97049 21968 ft 398 kts 349°
2026-04-26 13:36 27.75147 -81.97502 22401 ft 400 kts 349°
2026-04-26 13:36 27.77906 -81.97954 22822 ft 402 kts 349°
2026-04-26 13:37 27.80648 -81.98407 23233 ft 404 kts 348°
2026-04-26 13:37 27.83432 -81.98869 23623 ft 406 kts 348°
2026-04-26 13:37 27.86274 -81.99342 23928 ft 409 kts 348°
2026-04-26 13:37 27.89059 -81.99806 24246 ft 410 kts 348°
2026-04-26 13:38 27.91921 -82.00282 24571 ft 412 kts 348°
2026-04-26 13:38 27.94724 -82.00748 24873 ft 413 kts 348°
2026-04-26 13:38 27.97515 -82.01490 25177 ft 411 kts 339°
2026-04-26 13:38 28.00131 -82.02774 25480 ft 409 kts 329°
2026-04-26 13:39 28.02510 -82.04533 25771 ft 409 kts 323°
2026-04-26 13:39 28.04825 -82.06420 26071 ft 411 kts 323°
2026-04-26 13:39 28.07147 -82.08310 26368 ft 412 kts 323°
2026-04-26 13:39 28.09476 -82.10205 26657 ft 413 kts 323°
2026-04-26 13:40 28.11821 -82.12109 26942 ft 414 kts 323°
2026-04-26 13:40 28.14166 -82.14011 27231 ft 416 kts 323°
2026-04-26 13:40 28.15755 -82.15300 27417 ft 417 kts 323°
2026-04-26 13:40 28.18882 -82.17846 27742 ft 419 kts 323°
2026-04-26 13:41 28.20484 -82.19154 27915 ft 420 kts 323°
2026-04-26 13:41 28.22854 -82.21095 28168 ft 421 kts 323°
2026-04-26 13:41 28.25235 -82.23045 28415 ft 422 kts 323°
2026-04-26 13:41 28.27618 -82.24994 28652 ft 424 kts 323°
2026-04-26 13:42 28.30016 -82.26952 28884 ft 425 kts 323°
2026-04-26 13:42 28.32415 -82.28907 29108 ft 426 kts 323°
2026-04-26 13:42 28.34827 -82.30876 29321 ft 427 kts 323°
2026-04-26 13:42 28.37235 -82.32848 29519 ft 428 kts 323°
2026-04-26 13:43 28.39648 -82.34824 29821 ft 427 kts 323°
2026-04-26 13:43 28.42048 -82.36791 30127 ft 425 kts 323°
2026-04-26 13:43 28.44413 -82.38730 30381 ft 424 kts 323°
2026-04-26 13:43 28.46832 -82.40714 30639 ft 424 kts 323°
2026-04-26 13:44 28.49189 -82.42647 30890 ft 422 kts 322°
2026-04-26 13:44 28.51569 -82.44601 31145 ft 421 kts 322°
2026-04-26 13:44 28.53942 -82.46553 31390 ft 420 kts 322°
2026-04-26 13:44 28.56309 -82.48499 31634 ft 420 kts 323°
2026-04-26 13:45 28.58674 -82.50443 31852 ft 419 kts 323°
2026-04-26 13:45 28.61031 -82.52383 32092 ft 418 kts 323°
2026-04-26 13:45 28.63387 -82.54322 32333 ft 418 kts 323°
2026-04-26 13:45 28.65740 -82.56258 32579 ft 417 kts 323°
2026-04-26 13:46 28.68088 -82.58196 32804 ft 416 kts 323°
2026-04-26 13:46 28.70427 -82.60128 33040 ft 415 kts 323°
2026-04-26 13:46 28.72766 -82.62062 33271 ft 415 kts 323°
2026-04-26 13:46 28.75101 -82.63990 33501 ft 414 kts 323°
2026-04-26 13:47 28.77431 -82.65914 33771 ft 413 kts 323°
2026-04-26 13:47 28.79758 -82.67835 33942 ft 412 kts 323°
2026-04-26 13:47 28.82072 -82.69750 33980 ft 411 kts 323°
2026-04-26 13:48 28.86694 -82.73573 33985 ft 410 kts 323°
2026-04-26 13:48 28.91305 -82.77398 33986 ft 410 kts 322°
2026-04-26 13:49 28.95912 -82.81224 33985 ft 409 kts 323°
2026-04-26 13:49 29.00511 -82.85044 33983 ft 409 kts 322°
2026-04-26 13:50 29.05111 -82.88875 33983 ft 409 kts 322°
2026-04-26 13:50 29.09712 -82.92686 34013 ft 408 kts 323°
2026-04-26 13:51 29.14339 -82.96443 34016 ft 407 kts 323°
2026-04-26 13:51 29.18926 -83.00169 34023 ft 406 kts 323°
2026-04-26 13:52 29.23527 -83.03936 34009 ft 406 kts 323°
2026-04-26 13:52 29.28119 -83.07695 34008 ft 406 kts 323°
2026-04-26 13:53 29.32709 -83.11459 34013 ft 405 kts 323°
2026-04-26 13:53 29.37297 -83.15222 34031 ft 405 kts 323°
2026-04-26 13:54 29.41871 -83.18975 34020 ft 404 kts 323°
2026-04-26 13:54 29.46423 -83.22731 34025 ft 402 kts 323°
2026-04-26 13:55 29.52469 -83.27711 34022 ft 401 kts 323°
2026-04-26 13:56 29.60035 -83.33952 34000 ft 401 kts 323°
2026-04-26 13:56 29.64558 -83.37690 34002 ft 400 kts 323°
2026-04-26 13:57 29.69082 -83.41429 34024 ft 400 kts 323°
2026-04-26 13:57 29.73597 -83.45161 34030 ft 399 kts 323°
2026-04-26 13:58 29.78106 -83.48897 34016 ft 399 kts 323°
2026-04-26 13:58 29.82604 -83.52642 34016 ft 399 kts 323°
2026-04-26 13:59 29.87105 -83.56384 34008 ft 399 kts 323°
2026-04-26 13:59 29.91579 -83.60107 34007 ft 399 kts 323°
2026-04-26 14:00 30.00582 -83.67609 34010 ft 399 kts 323°
2026-04-26 14:01 30.05079 -83.71354 34006 ft 399 kts 323°
2026-04-26 14:01 30.09577 -83.75101 34005 ft 399 kts 323°
2026-04-26 14:02 30.14066 -83.78853 34001 ft 398 kts 322°
2026-04-26 14:02 30.18753 -83.82280 34002 ft 401 kts 334°
2026-04-26 14:03 30.23935 -83.84701 33997 ft 402 kts 335°
2026-04-26 14:03 30.29117 -83.87126 34017 ft 402 kts 334°
2026-04-26 14:04 30.34258 -83.89540 34004 ft 401 kts 334°
2026-04-26 14:04 30.39431 -83.91969 33999 ft 401 kts 334°
2026-04-26 14:05 30.44610 -83.94412 33987 ft 402 kts 334°
2026-04-26 14:05 30.49785 -83.96852 33990 ft 402 kts 334°
2026-04-26 14:06 30.54968 -83.99287 33979 ft 402 kts 334°
2026-04-26 14:06 30.60160 -84.01733 33981 ft 402 kts 334°
2026-04-26 14:07 30.65342 -84.04182 33987 ft 402 kts 334°
2026-04-26 14:07 30.70527 -84.06633 33986 ft 402 kts 334°
2026-04-26 14:08 30.75711 -84.09087 33990 ft 402 kts 334°
2026-04-26 14:08 30.80863 -84.11530 33986 ft 402 kts 334°
2026-04-26 14:09 30.86046 -84.13992 34006 ft 402 kts 333°
2026-04-26 14:09 30.91234 -84.16457 34002 ft 402 kts 333°
2026-04-26 14:10 30.96422 -84.18921 33994 ft 402 kts 334°
2026-04-26 14:10 31.01600 -84.21383 33996 ft 402 kts 333°
2026-04-26 14:11 31.09357 -84.25090 33991 ft 402 kts 333°
2026-04-26 14:11 31.14533 -84.27568 34006 ft 402 kts 333°
2026-04-26 14:12 31.19705 -84.30039 33990 ft 402 kts 333°
2026-04-26 14:12 31.24885 -84.32513 33979 ft 402 kts 333°
2026-04-26 14:13 31.32660 -84.36240 33971 ft 403 kts 333°
2026-04-26 14:14 31.37819 -84.38718 33969 ft 403 kts 333°
2026-04-26 14:14 31.43011 -84.41215 33990 ft 403 kts 333°
2026-04-26 14:15 31.48200 -84.43716 33989 ft 403 kts 333°
2026-04-26 14:15 31.53415 -84.46230 33984 ft 403 kts 333°
2026-04-26 14:16 31.58597 -84.48726 33985 ft 402 kts 333°
2026-04-26 14:16 31.63743 -84.51213 33982 ft 402 kts 333°
2026-04-26 14:17 31.68914 -84.53713 34002 ft 402 kts 333°
2026-04-26 14:17 31.74089 -84.56214 33998 ft 402 kts 333°
2026-04-26 14:18 31.79253 -84.58723 33990 ft 401 kts 333°
2026-04-26 14:18 31.84405 -84.61220 33986 ft 401 kts 333°
2026-04-26 14:19 31.89553 -84.63725 33982 ft 401 kts 333°
2026-04-26 14:19 31.94707 -84.66234 33979 ft 400 kts 333°
2026-04-26 14:20 31.99854 -84.68741 33996 ft 400 kts 333°
2026-04-26 14:20 32.04996 -84.71252 33993 ft 399 kts 333°
2026-04-26 14:21 32.10125 -84.73762 33987 ft 399 kts 333°
2026-04-26 14:21 32.15252 -84.76261 33981 ft 399 kts 333°
2026-04-26 14:22 32.20344 -84.78755 33983 ft 398 kts 333°
2026-04-26 14:22 32.25458 -84.81266 34006 ft 398 kts 332°
2026-04-26 14:23 32.30560 -84.83769 33997 ft 397 kts 332°
2026-04-26 14:23 32.35646 -84.86275 34007 ft 395 kts 332°
2026-04-26 14:24 32.40721 -84.88775 34008 ft 395 kts 332°
2026-04-26 14:24 32.45794 -84.91268 34006 ft 394 kts 332°
2026-04-26 14:25 32.50858 -84.93759 34002 ft 394 kts 332°
2026-04-26 14:25 32.55912 -84.96255 34029 ft 393 kts 332°
2026-04-26 14:26 32.60939 -84.98748 34019 ft 391 kts 332°
2026-04-26 14:26 32.65959 -85.01236 34007 ft 390 kts 332°
2026-04-26 14:27 32.70971 -85.03715 34012 ft 390 kts 332°
2026-04-26 14:27 32.75131 -85.05782 34002 ft 390 kts 332°
2026-04-26 14:28 32.80162 -85.08281 34016 ft 390 kts 331°
2026-04-26 14:28 32.85129 -85.10749 34028 ft 388 kts 331°
2026-04-26 14:29 32.90104 -85.13221 34024 ft 387 kts 331°
2026-04-26 14:29 32.95058 -85.15695 34025 ft 386 kts 331°
2026-04-26 14:30 33.00005 -85.18164 34017 ft 385 kts 331°
2026-04-26 14:30 33.04943 -85.20637 33985 ft 385 kts 331°
2026-04-26 14:31 33.09931 -85.23011 34004 ft 386 kts 332°
2026-04-26 14:31 33.14962 -85.25280 33997 ft 386 kts 332°
2026-04-26 14:32 33.19986 -85.27564 33993 ft 386 kts 332°
2026-04-26 14:32 33.24995 -85.29874 33985 ft 386 kts 332°
2026-04-26 14:33 33.30004 -85.32195 33981 ft 386 kts 332°
2026-04-26 14:33 33.35009 -85.34516 33979 ft 386 kts 332°
2026-04-26 14:34 33.40015 -85.36842 33976 ft 386 kts 332°
2026-04-26 14:34 33.45018 -85.39158 33974 ft 386 kts 332°
2026-04-26 14:35 33.50018 -85.41487 33968 ft 385 kts 332°
2026-04-26 14:35 33.55016 -85.43822 33967 ft 385 kts 332°
2026-04-26 14:36 33.60009 -85.46154 33983 ft 385 kts 332°
2026-04-26 14:36 33.64969 -85.48464 33992 ft 385 kts 331°
2026-04-26 14:37 33.69958 -85.50794 33989 ft 384 kts 331°
2026-04-26 14:37 33.74937 -85.53126 33988 ft 384 kts 331°